Terug naar catalogus

STARLINK-11498

ActiefCommunicatieVLEO
NORAD 62276·PAYLOAD·🇺🇸 United States

Gelanceerd Dec 8, 2024 vanaf Cape Canaveral Space Force Station

Loading…

Volgende Passages (komende 24 uur)

TLE

VersSource: CelesTrak SupGP

Epoch: Sep 15, 2026, 03:22 UTC

1 62276C 24237K   26258.14076389 -.00068158  00000+0 -52950-3 0  2583
2 62276  43.0004 354.6203 0001575 274.6385 258.1695 15.70866913    15

Volg STARLINK-11498 in realtime met AllMySat

Download on the App Store